Time,TemperatureF,DewpointF,PressureIn,WindDirection,WindDirectionDegrees,WindSpeedMPH,WindSpeedGustMPH,Humidity,HourlyPrecipIn,Conditions,Clouds,dailyrainin,SoftwareType,DateUTC
2015-03-06 00:00:00,7.0,4.7,30.44,North,0,0.0,0.0,90,0.00,CLR,,0.00,WeatherDisplay:10.37,2015-03-06 05:00:00,
2015-03-06 00:05:00,6.8,4.7,30.44,North,0,0.0,0.0,91,0.00,CLR,,0.00,WeatherDisplay:10.37,2015-03-06 05:05:00,
2015-03-06 00:10:00,6.6,4.8,30.44,North,0,0.0,0.0,92,0.00,CLR,,0.00,WeatherDisplay:10.37,2015-03-06 05:10:00,
2015-03-06 00:15:00,6.4,4.6,30.43,North,0,0.0,0.0,92,0.00,CLR,,0.00,WeatherDisplay:10.37,2015-03-06 05:15:00,
2015-03-06 00:20:00,6.3,4.7,30.43,North,0,0.0,0.0,93,0.00,CLR,,0.00,WeatherDisplay:10.37,2015-03-06 05:20:00,
2015-03-06 00:25:00,6.4,5.1,30.43,North,0,0.0,0.0,94,0.00,CLR,,0.00,WeatherDisplay:10.37,2015-03-06 05:25:00,
2015-03-06 00:30:00,6.3,4.7,30.44,North,0,0.0,0.0,93,0.00,CLR,,0.00,WeatherDisplay:10.37,2015-03-06 05:30:00,
2015-03-06 00:35:00,6.1,4.5,30.43,North,0,0.0,0.0,93,0.00,CLR,,0.00,WeatherDisplay:10.37,2015-03-06 05:35:00,
2015-03-06 00:40:00,5.9,4.3,30.43,North,0,0.0,0.0,93,0.00,CLR,,0.00,WeatherDisplay:10.37,2015-03-06 05:40:00,
2015-03-06 00:45:00,5.7,4.4,30.43,North,0,0.0,0.0,94,0.00,CLR,,0.00,WeatherDisplay:10.37,2015-03-06 05:45:00,
2015-03-06 00:50:00,5.5,4.2,30.43,North,0,0.0,0.0,94,0.00,CLR,,0.00,WeatherDisplay:10.37,2015-03-06 05:50:00,
2015-03-06 00:55:00,5.4,4.2,30.44,North,0,0.0,0.0,95,0.00,CLR,,0.00,WeatherDisplay:10.37,2015-03-06 05:55:00,
2015-03-06 01:00:00,5.4,4.2,30.43,North,0,0.0,0.0,95,0.00,CLR,,0.00,WeatherDisplay:10.37,2015-03-06 06:00:00,
2015-03-06 01:05:00,5.4,4.2,30.44,North,0,0.0,0.0,95,0.00,CLR,,0.00,WeatherDisplay:10.37,2015-03-06 06:05:00,
2015-03-06 01:10:00,5.4,4.2,30.44,North,0,0.0,0.0,95,0.00,CLR,,0.00,WeatherDisplay:10.37,2015-03-06 06:10:00,
2015-03-06 01:15:00,5.4,4.2,30.43,North,0,0.0,0.0,95,0.00,CLR,,0.00,WeatherDisplay:10.37,2015-03-06 06:15:00,
2015-03-06 01:20:00,5.2,4.1,30.44,North,0,0.0,0.0,95,0.00,CLR,,0.00,WeatherDisplay:10.37,2015-03-06 06:20:00,
2015-03-06 01:25:00,5.0,4.1,30.44,North,0,0.0,0.0,96,0.00,CLR,,0.00,WeatherDisplay:10.37,2015-03-06 06:25:00,
2015-03-06 01:30:00,4.8,3.9,30.44,North,0,0.0,0.0,96,0.00,CLR,,0.00,WeatherDisplay:10.37,2015-03-06 06:30:00,
2015-03-06 01:35:00,4.8,3.9,30.44,North,0,0.0,0.0,96,0.00,CLR,,0.00,WeatherDisplay:10.37,2015-03-06 06:35:00,
2015-03-06 01:40:00,4.8,4.4,30.44,North,0,0.0,0.0,98,0.00,CLR,,0.00,WeatherDisplay:10.37,2015-03-06 06:40:00,
2015-03-06 01:45:00,4.6,4.0,30.44,North,0,0.0,0.0,97,0.00,CLR,,0.00,WeatherDisplay:10.37,2015-03-06 06:45:00,
2015-03-06 01:50:00,4.6,4.2,30.44,North,0,0.0,0.0,98,0.00,CLR,,0.00,WeatherDisplay:10.37,2015-03-06 06:50:00,
2015-03-06 01:55:00,4.8,4.6,30.44,North,0,0.0,0.0,99,0.00,CLR,,0.00,WeatherDisplay:10.37,2015-03-06 06:55:00,
2015-03-06 02:00:00,4.8,4.4,30.44,North,0,0.0,0.0,98,0.00,CLR,,0.00,WeatherDisplay:10.37,2015-03-06 07:00:00,
2015-03-06 02:05:00,4.5,4.0,30.44,North,0,0.0,0.0,98,0.00,CLR,,0.00,WeatherDisplay:10.37,2015-03-06 07:05:00,
2015-03-06 02:10:00,4.3,3.8,30.44,North,0,0.0,0.0,98,0.00,CLR,,0.00,WeatherDisplay:10.37,2015-03-06 07:10:00,
2015-03-06 02:15:00,4.3,3.8,30.44,North,0,0.0,0.0,98,0.00,CLR,,0.00,WeatherDisplay:10.37,2015-03-06 07:15:00,
2015-03-06 02:20:00,4.3,4.3,30.44,North,0,0.0,0.0,100,0.00,,,0.00,WeatherDisplay:10.37,2015-03-06 07:20:00,
2015-03-06 02:25:00,4.5,4.5,30.44,North,0,0.0,0.0,100,0.00,,,0.00,WeatherDisplay:10.37,2015-03-06 07:25:00,
2015-03-06 02:30:00,4.5,4.2,30.46,North,0,0.0,0.0,99,0.00,,,0.00,WeatherDisplay:10.37,2015-03-06 07:30:00,
2015-03-06 02:35:00,4.3,4.1,30.45,North,0,0.0,0.0,99,0.00,,,0.00,WeatherDisplay:10.37,2015-03-06 07:35:00,
2015-03-06 02:40:00,4.1,3.9,30.44,North,0,0.0,0.0,99,0.00,,,0.00,WeatherDisplay:10.37,2015-03-06 07:40:00,
2015-03-06 02:45:00,3.9,3.9,30.45,North,0,0.0,0.0,100,0.00,,,0.00,WeatherDisplay:10.37,2015-03-06 07:45:00,
2015-03-06 02:50:00,3.9,3.9,30.45,North,0,0.0,0.0,100,0.00,,,0.00,WeatherDisplay:10.37,2015-03-06 07:50:00,
2015-03-06 02:55:00,3.9,3.7,30.45,North,0,0.0,0.0,99,0.00,,,0.00,WeatherDisplay:10.37,2015-03-06 07:55:00,
2015-03-06 03:00:00,3.6,3.6,30.44,North,0,0.0,0.0,100,0.00,,,0.00,WeatherDisplay:10.37,2015-03-06 08:00:00,
2015-03-06 03:05:00,3.6,3.3,30.44,North,0,0.0,0.0,99,0.00,,,0.00,WeatherDisplay:10.37,2015-03-06 08:05:00,
2015-03-06 03:10:00,3.4,3.4,30.44,North,0,0.0,0.0,100,0.00,,,0.00,WeatherDisplay:10.37,2015-03-06 08:10:00,
2015-03-06 03:15:00,3.4,3.4,30.44,North,0,0.0,0.0,100,0.00,,,0.00,WeatherDisplay:10.37,2015-03-06 08:15:00,
2015-03-06 03:20:00,3.4,3.4,30.44,North,0,0.0,0.0,100,0.00,,,0.00,WeatherDisplay:10.37,2015-03-06 08:20:00,
2015-03-06 03:25:00,3.4,3.4,30.43,North,0,0.0,0.0,100,0.00,,,0.00,WeatherDisplay:10.37,2015-03-06 08:25:00,
2015-03-06 03:30:00,3.0,3.0,30.44,North,0,0.0,0.0,100,0.00,,,0.00,WeatherDisplay:10.37,2015-03-06 08:30:00,
2015-03-06 03:35:00,2.8,2.8,30.43,North,0,0.0,0.0,100,0.00,,,0.00,WeatherDisplay:10.37,2015-03-06 08:35:00,
2015-03-06 03:40:00,3.0,3.0,30.44,North,0,0.0,0.0,100,0.00,,,0.00,WeatherDisplay:10.37,2015-03-06 08:40:00,
2015-03-06 03:45:00,3.2,3.2,30.44,North,0,0.0,0.0,100,0.00,,,0.00,WeatherDisplay:10.37,2015-03-06 08:45:00,
2015-03-06 03:50:00,3.4,3.4,30.44,North,0,0.0,0.0,100,0.00,,,0.00,WeatherDisplay:10.37,2015-03-06 08:50:00,
2015-03-06 03:55:00,3.2,3.2,30.44,North,0,0.0,0.0,100,0.00,,,0.00,WeatherDisplay:10.37,2015-03-06 08:55:00,
2015-03-06 04:00:00,3.0,3.0,30.44,North,0,0.0,0.0,100,0.00,,,0.00,WeatherDisplay:10.37,2015-03-06 09:00:00,
2015-03-06 04:05:00,3.0,3.0,30.43,North,0,0.0,0.0,100,0.00,,,0.00,WeatherDisplay:10.37,2015-03-06 09:05:00,
2015-03-06 04:10:00,2.8,2.8,30.43,North,0,0.0,0.0,100,0.00,,,0.00,WeatherDisplay:10.37,2015-03-06 09:10:00,
2015-03-06 04:15:00,2.7,2.7,30.42,North,0,0.0,0.0,100,0.00,,,0.00,WeatherDisplay:10.37,2015-03-06 09:15:00,
2015-03-06 04:20:00,2.5,2.5,30.42,North,0,0.0,0.0,100,0.00,,,0.00,WeatherDisplay:10.37,2015-03-06 09:20:00,
2015-03-06 04:25:00,2.5,2.5,30.43,North,0,0.0,0.0,100,0.00,,,0.00,WeatherDisplay:10.37,2015-03-06 09:25:00,
2015-03-06 04:30:00,2.7,2.7,30.43,North,0,0.0,0.0,100,0.00,,,0.00,WeatherDisplay:10.37,2015-03-06 09:30:00,
2015-03-06 04:35:00,2.7,2.7,30.42,North,0,0.0,0.0,100,0.00,,,0.00,WeatherDisplay:10.37,2015-03-06 09:35:00,
2015-03-06 04:40:00,2.5,2.5,30.42,North,0,0.0,0.0,100,0.00,,,0.00,WeatherDisplay:10.37,2015-03-06 09:40:00,
2015-03-06 04:45:00,2.5,2.5,30.42,North,0,0.0,0.0,100,0.00,,,0.00,WeatherDisplay:10.37,2015-03-06 09:45:00,
2015-03-06 04:50:00,2.3,2.3,30.42,North,0,0.0,0.0,100,0.00,,,0.00,WeatherDisplay:10.37,2015-03-06 09:50:00,
2015-03-06 04:55:00,2.1,2.1,30.43,North,0,0.0,0.0,100,0.00,,,0.00,WeatherDisplay:10.37,2015-03-06 09:55:00,
2015-03-06 05:00:00,1.9,1.9,30.42,North,0,0.0,0.0,100,0.00,,,0.00,WeatherDisplay:10.37,2015-03-06 10:00:00,
2015-03-06 05:05:00,2.1,2.1,30.43,North,0,0.0,0.0,100,0.00,,,0.00,WeatherDisplay:10.37,2015-03-06 10:05:00,
2015-03-06 05:10:00,2.1,2.1,30.43,North,0,0.0,0.0,100,0.00,,,0.00,WeatherDisplay:10.37,2015-03-06 10:10:00,
2015-03-06 05:15:00,1.9,1.9,30.43,North,0,0.0,0.0,100,0.00,,,0.00,WeatherDisplay:10.37,2015-03-06 10:15:00,
2015-03-06 05:20:00,1.9,1.9,30.43,North,0,0.0,0.0,100,0.00,,,0.00,WeatherDisplay:10.37,2015-03-06 10:20:00,
2015-03-06 05:25:00,1.9,1.9,30.44,North,0,0.0,0.0,100,0.00,,,0.00,WeatherDisplay:10.37,2015-03-06 10:25:00,
2015-03-06 05:30:00,1.9,1.9,30.44,North,0,0.0,0.0,100,0.00,,,0.00,WeatherDisplay:10.37,2015-03-06 10:30:00,
2015-03-06 05:35:00,1.9,1.9,30.44,North,0,0.0,0.0,100,0.00,,,0.00,WeatherDisplay:10.37,2015-03-06 10:35:00,
2015-03-06 05:40:00,2.1,2.1,30.44,North,0,0.0,0.0,100,0.00,,,0.00,WeatherDisplay:10.37,2015-03-06 10:40:00,
2015-03-06 05:45:00,2.1,2.1,30.44,North,0,0.0,0.0,100,0.00,,,0.00,WeatherDisplay:10.37,2015-03-06 10:45:00,
2015-03-06 05:50:00,2.1,2.1,30.44,North,0,0.0,0.0,100,0.00,,,0.00,WeatherDisplay:10.37,2015-03-06 10:50:00,
2015-03-06 05:55:00,1.8,1.8,30.44,North,0,0.0,0.0,100,0.00,,,0.00,WeatherDisplay:10.37,2015-03-06 10:55:00,
2015-03-06 06:00:00,1.8,1.8,30.44,North,0,0.0,0.0,100,0.00,,,0.00,WeatherDisplay:10.37,2015-03-06 11:00:00,
2015-03-06 06:05:00,1.6,1.6,30.45,North,0,0.0,0.0,100,0.00,,,0.00,WeatherDisplay:10.37,2015-03-06 11:05:00,
2015-03-06 06:10:00,1.6,1.6,30.44,North,0,0.0,0.0,100,0.00,,,0.00,WeatherDisplay:10.37,2015-03-06 11:10:00,
2015-03-06 06:15:00,1.4,1.4,30.45,North,0,0.0,0.0,100,0.00,,,0.00,WeatherDisplay:10.37,2015-03-06 11:15:00,
2015-03-06 06:20:00,1.2,1.2,30.44,North,0,0.0,0.0,100,0.00,,,0.00,WeatherDisplay:10.37,2015-03-06 11:20:00,
2015-03-06 06:25:00,1.2,1.2,30.44,North,0,0.0,0.0,100,0.00,,,0.00,WeatherDisplay:10.37,2015-03-06 11:25:00,
2015-03-06 06:30:00,1.2,1.2,30.44,North,0,0.0,0.0,100,0.00,,,0.00,WeatherDisplay:10.37,2015-03-06 11:30:00,
2015-03-06 06:35:00,1.0,1.0,30.44,North,0,0.0,0.0,100,0.00,,,0.00,WeatherDisplay:10.37,2015-03-06 11:35:00,
2015-03-06 06:40:00,0.9,0.9,30.44,North,0,0.0,0.0,100,0.00,,,0.00,WeatherDisplay:10.37,2015-03-06 11:40:00,
2015-03-06 06:45:00,0.9,0.9,30.44,North,0,0.0,0.0,100,0.00,,,0.00,WeatherDisplay:10.37,2015-03-06 11:45:00,
2015-03-06 06:50:00,0.9,0.9,30.44,North,0,0.0,0.0,100,0.00,,,0.00,WeatherDisplay:10.37,2015-03-06 11:50:00,
2015-03-06 06:55:00,0.7,0.7,30.44,North,0,0.0,0.0,100,0.00,,,0.00,WeatherDisplay:10.37,2015-03-06 11:55:00,
2015-03-06 07:00:00,0.7,0.7,30.44,North,0,0.0,0.0,100,0.00,,,0.00,WeatherDisplay:10.37,2015-03-06 12:00:00,
2015-03-06 07:05:00,0.7,0.7,30.44,North,0,0.0,0.0,100,0.00,,,0.00,WeatherDisplay:10.37,2015-03-06 12:05:00,
2015-03-06 07:10:00,0.3,0.3,30.44,North,0,0.0,0.0,100,0.00,,,0.00,WeatherDisplay:10.37,2015-03-06 12:10:00,
2015-03-06 07:15:00,0.3,0.3,30.44,North,0,0.0,0.0,100,0.00,,,0.00,WeatherDisplay:10.37,2015-03-06 12:15:00,
2015-03-06 07:20:00,0.3,0.3,30.44,North,0,0.0,0.0,100,0.00,,,0.00,WeatherDisplay:10.37,2015-03-06 12:20:00,
2015-03-06 07:25:00,0.7,0.7,30.44,North,0,0.0,0.0,100,0.00,,,0.00,WeatherDisplay:10.37,2015-03-06 12:25:00,
2015-03-06 07:30:00,0.9,0.9,30.44,North,0,0.0,0.0,100,0.00,,,0.00,WeatherDisplay:10.37,2015-03-06 12:30:00,
2015-03-06 07:35:00,1.2,1.2,30.44,North,0,0.0,0.0,100,0.00,,,0.00,WeatherDisplay:10.37,2015-03-06 12:35:00,
2015-03-06 07:40:00,1.8,1.8,30.44,North,0,0.0,0.0,100,0.00,,,0.00,WeatherDisplay:10.37,2015-03-06 12:40:00,
2015-03-06 07:45:00,2.1,2.1,30.44,North,0,0.0,0.0,100,0.00,,,0.00,WeatherDisplay:10.37,2015-03-06 12:45:00,
2015-03-06 07:50:00,2.7,2.7,30.46,North,0,0.0,0.0,100,0.00,,,0.00,WeatherDisplay:10.37,2015-03-06 12:50:00,
2015-03-06 07:55:00,3.4,3.4,30.46,North,0,0.0,0.0,100,0.00,,,0.00,WeatherDisplay:10.37,2015-03-06 12:55:00,
2015-03-06 08:00:00,3.9,3.9,30.46,North,0,0.0,0.0,100,0.00,,,0.00,WeatherDisplay:10.37,2015-03-06 13:00:00,
2015-03-06 08:05:00,5.2,5.2,30.46,North,0,0.0,0.0,100,0.00,,,0.00,WeatherDisplay:10.37,2015-03-06 13:05:00,
2015-03-06 08:10:00,7.0,7.0,30.46,North,0,0.0,0.0,100,0.00,,,0.00,WeatherDisplay:10.37,2015-03-06 13:10:00,
2015-03-06 08:15:00,8.8,8.8,30.46,North,0,0.0,0.0,100,0.00,,,0.00,WeatherDisplay:10.37,2015-03-06 13:15:00,
2015-03-06 08:20:00,11.1,11.1,30.45,North,0,0.0,0.0,100,0.00,,,0.00,WeatherDisplay:10.37,2015-03-06 13:20:00,
2015-03-06 08:25:00,12.4,12.4,30.45,North,0,0.0,0.0,100,0.00,,,0.00,WeatherDisplay:10.37,2015-03-06 13:25:00,
2015-03-06 08:30:00,12.2,12.2,30.45,North,0,0.0,0.0,100,0.00,,,0.00,WeatherDisplay:10.37,2015-03-06 13:30:00,
2015-03-06 08:35:00,12.0,12.0,30.45,North,0,0.0,0.0,100,0.00,,,0.00,WeatherDisplay:10.37,2015-03-06 13:35:00,
2015-03-06 08:40:00,12.9,12.9,30.44,North,0,0.0,0.0,100,0.00,,,0.00,WeatherDisplay:10.37,2015-03-06 13:40:00,
2015-03-06 08:45:00,13.8,13.8,30.45,North,0,0.0,0.0,100,0.00,,,0.00,WeatherDisplay:10.37,2015-03-06 13:45:00,
2015-03-06 08:50:00,14.4,14.4,30.46,North,0,0.0,0.0,100,0.00,,,0.00,WeatherDisplay:10.37,2015-03-06 13:50:00,
2015-03-06 08:55:00,14.5,12.9,30.46,North,0,0.0,0.0,93,0.00,CLR,,0.00,WeatherDisplay:10.37,2015-03-06 13:55:00,
2015-03-06 09:00:00,14.9,10.9,30.46,North,0,0.0,0.0,84,0.00,CLR,,0.00,WeatherDisplay:10.37,2015-03-06 14:00:00,
2015-03-06 09:05:00,15.1,10.0,30.46,North,0,0.0,0.0,80,0.00,CLR,,0.00,WeatherDisplay:10.37,2015-03-06 14:05:00,
2015-03-06 09:10:00,15.6,9.7,30.46,North,0,0.0,0.0,77,0.00,CLR,,0.00,WeatherDisplay:10.37,2015-03-06 14:10:00,
2015-03-06 09:15:00,16.0,8.8,30.46,North,0,0.0,0.0,73,0.00,CLR,,0.00,WeatherDisplay:10.37,2015-03-06 14:15:00,
2015-03-06 09:20:00,16.0,7.9,30.46,North,0,0.0,0.0,70,0.00,CLR,,0.00,WeatherDisplay:10.37,2015-03-06 14:20:00,
2015-03-06 09:25:00,16.0,7.9,30.46,North,0,0.0,0.0,70,0.00,CLR,,0.00,WeatherDisplay:10.37,2015-03-06 14:25:00,
2015-03-06 09:30:00,16.5,8.4,30.47,North,0,0.0,0.0,70,0.00,CLR,,0.00,WeatherDisplay:10.37,2015-03-06 14:30:00,
2015-03-06 09:35:00,17.1,8.6,30.47,North,0,0.0,0.0,69,0.00,CLR,,0.00,WeatherDisplay:10.37,2015-03-06 14:35:00,
2015-03-06 09:40:00,17.2,7.8,30.46,North,0,0.0,0.0,66,0.00,CLR,,0.00,WeatherDisplay:10.37,2015-03-06 14:40:00,
2015-03-06 09:45:00,17.6,8.5,30.46,North,0,0.0,0.0,67,0.00,CLR,,0.00,WeatherDisplay:10.37,2015-03-06 14:45:00,
2015-03-06 09:50:00,18.5,9.4,30.46,North,0,0.0,0.0,67,0.00,CLR,,0.00,WeatherDisplay:10.37,2015-03-06 14:50:00,
2015-03-06 09:55:00,18.9,9.0,30.46,North,0,0.0,0.0,65,0.00,CLR,,0.00,WeatherDisplay:10.37,2015-03-06 14:55:00,
2015-03-06 10:00:00,18.7,8.2,30.46,North,0,0.0,0.0,63,0.00,CLR,,0.00,WeatherDisplay:10.37,2015-03-06 15:00:00,
2015-03-06 10:05:00,19.2,9.4,30.46,North,0,0.0,0.0,65,0.00,CLR,,0.00,WeatherDisplay:10.37,2015-03-06 15:05:00,
2015-03-06 10:10:00,19.8,9.5,30.46,North,0,0.0,0.0,64,0.00,CLR,,0.00,WeatherDisplay:10.37,2015-03-06 15:10:00,
2015-03-06 10:15:00,19.9,9.7,30.46,North,0,0.0,0.0,64,0.00,CLR,,0.00,WeatherDisplay:10.37,2015-03-06 15:15:00,
2015-03-06 10:20:00,19.8,9.2,30.46,North,0,0.0,0.0,63,0.00,CLR,,0.00,WeatherDisplay:10.37,2015-03-06 15:20:00,
2015-03-06 10:25:00,19.8,9.2,30.46,North,0,0.0,0.0,63,0.00,CLR,,0.00,WeatherDisplay:10.37,2015-03-06 15:25:00,
2015-03-06 10:30:00,19.9,9.0,30.46,North,0,0.0,0.0,62,0.00,CLR,,0.00,WeatherDisplay:10.37,2015-03-06 15:30:00,
2015-03-06 10:35:00,20.5,9.2,30.46,North,0,0.0,0.0,61,0.00,CLR,,0.00,WeatherDisplay:10.37,2015-03-06 15:35:00,
2015-03-06 10:40:00,20.7,10.0,30.45,North,0,0.0,0.0,63,0.00,CLR,,0.00,WeatherDisplay:10.37,2015-03-06 15:40:00,
2015-03-06 10:45:00,21.0,10.0,30.45,North,0,0.0,0.0,62,0.00,CLR,,0.00,WeatherDisplay:10.37,2015-03-06 15:45:00,
2015-03-06 10:50:00,21.7,10.0,30.44,North,0,0.0,0.0,60,0.00,CLR,,0.00,WeatherDisplay:10.37,2015-03-06 15:50:00,
2015-03-06 10:55:00,22.8,10.6,30.44,North,0,0.0,0.0,59,0.00,CLR,,0.00,WeatherDisplay:10.37,2015-03-06 15:55:00,
2015-03-06 11:00:00,22.5,9.9,30.44,North,0,0.0,0.0,58,0.00,CLR,,0.00,WeatherDisplay:10.37,2015-03-06 16:00:00,
2015-03-06 11:05:00,22.3,8.9,30.44,North,0,0.0,0.0,56,0.00,CLR,,0.00,WeatherDisplay:10.37,2015-03-06 16:05:00,
2015-03-06 11:10:00,22.5,9.9,30.44,North,0,0.0,0.0,58,0.00,CLR,,0.00,WeatherDisplay:10.37,2015-03-06 16:10:00,
2015-03-06 11:15:00,22.3,10.1,30.44,North,0,0.0,0.0,59,0.00,CLR,,0.00,WeatherDisplay:10.37,2015-03-06 16:15:00,
2015-03-06 11:20:00,22.3,9.3,30.44,North,0,0.0,0.0,57,0.00,CLR,,0.00,WeatherDisplay:10.37,2015-03-06 16:20:00,
2015-03-06 11:25:00,22.3,9.7,30.44,North,0,0.0,0.0,58,0.00,CLR,,0.00,WeatherDisplay:10.37,2015-03-06 16:25:00,
2015-03-06 11:30:00,22.3,8.5,30.44,North,0,0.0,0.0,55,0.00,CLR,,0.00,WeatherDisplay:10.37,2015-03-06 16:30:00,
2015-03-06 11:35:00,22.8,9.4,30.44,North,0,0.0,0.0,56,0.00,CLR,,0.00,WeatherDisplay:10.37,2015-03-06 16:35:00,
2015-03-06 11:40:00,23.4,9.6,30.44,North,0,0.0,0.0,55,0.00,CLR,,0.00,WeatherDisplay:10.37,2015-03-06 16:40:00,
2015-03-06 11:45:00,23.7,9.9,30.44,North,0,0.0,0.0,55,0.00,CLR,,0.00,WeatherDisplay:10.37,2015-03-06 16:45:00,
2015-03-06 11:50:00,24.1,10.6,30.44,North,0,0.0,0.0,56,0.00,CLR,,0.00,WeatherDisplay:10.37,2015-03-06 16:50:00,
2015-03-06 11:55:00,23.7,9.9,30.44,North,0,0.0,0.0,55,0.00,CLR,,0.00,WeatherDisplay:10.37,2015-03-06 16:55:00,
2015-03-06 12:00:00,23.4,9.6,30.44,North,0,0.0,0.0,55,0.00,CLR,,0.00,WeatherDisplay:10.37,2015-03-06 17:00:00,
2015-03-06 12:05:00,23.4,10.4,30.44,North,0,0.0,0.0,57,0.00,CLR,,0.00,WeatherDisplay:10.37,2015-03-06 17:05:00,
2015-03-06 12:10:00,24.1,11.4,30.44,North,0,0.0,0.0,58,0.00,CLR,,0.00,WeatherDisplay:10.37,2015-03-06 17:10:00,
2015-03-06 12:15:00,24.6,10.3,30.43,North,0,0.0,0.0,54,0.00,CLR,,0.00,WeatherDisplay:10.37,2015-03-06 17:15:00,
2015-03-06 12:20:00,24.4,10.2,30.43,North,0,0.0,0.0,54,0.00,CLR,,0.00,WeatherDisplay:10.37,2015-03-06 17:20:00,
2015-03-06 12:25:00,24.1,9.8,30.42,North,0,0.0,0.0,54,0.00,CLR,,0.00,WeatherDisplay:10.37,2015-03-06 17:25:00,
2015-03-06 12:30:00,24.3,11.2,30.42,North,0,0.0,0.0,57,0.00,CLR,,0.00,WeatherDisplay:10.37,2015-03-06 17:30:00,
2015-03-06 12:35:00,25.5,12.0,30.42,North,0,0.0,0.0,56,0.00,CLR,,0.00,WeatherDisplay:10.37,2015-03-06 17:35:00,
2015-03-06 12:40:00,25.3,10.6,30.42,North,0,0.0,0.0,53,0.00,CLR,,0.00,WeatherDisplay:10.37,2015-03-06 17:40:00,
2015-03-06 12:45:00,25.0,11.1,30.42,North,0,0.0,0.0,55,0.00,CLR,,0.00,WeatherDisplay:10.37,2015-03-06 17:45:00,
2015-03-06 12:50:00,25.5,11.6,30.42,North,0,0.0,0.0,55,0.00,CLR,,0.00,WeatherDisplay:10.37,2015-03-06 17:50:00,
2015-03-06 12:55:00,25.3,11.4,30.41,North,0,0.0,0.0,55,0.00,CLR,,0.00,WeatherDisplay:10.37,2015-03-06 17:55:00,
2015-03-06 13:00:00,25.0,10.7,30.40,North,0,0.0,0.0,54,0.00,CLR,,0.00,WeatherDisplay:10.37,2015-03-06 18:00:00,
2015-03-06 13:05:00,25.9,11.9,30.40,North,0,0.0,0.0,55,0.00,CLR,,0.00,WeatherDisplay:10.37,2015-03-06 18:05:00,
2015-03-06 13:10:00,26.2,11.8,30.40,North,0,0.0,0.0,54,0.00,CLR,,0.00,WeatherDisplay:10.37,2015-03-06 18:10:00,
2015-03-06 13:11:00,25.9,10.6,30.40,North,0,0.0,0.0,52,0.00,CLR,,0.00,WeatherDisplay:10.37,2015-03-06 18:11:00,
2015-03-06 13:12:00,25.9,11.5,30.40,North,0,0.0,0.0,54,0.00,CLR,,0.00,WeatherDisplay:10.37,2015-03-06 18:12:00,
2015-03-06 13:13:00,25.9,11.9,30.40,North,0,0.0,0.0,55,0.00,CLR,,0.00,WeatherDisplay:10.37,2015-03-06 18:13:00,
2015-03-06 13:15:00,26.1,12.1,30.40,North,0,0.0,0.0,55,0.00,CLR,,0.00,WeatherDisplay:10.37,2015-03-06 18:15:00,
2015-03-06 13:20:00,25.9,11.1,30.39,North,0,0.0,0.0,53,0.00,CLR,,0.00,WeatherDisplay:10.37,2015-03-06 18:20:00,
2015-03-06 13:25:00,26.4,12.0,30.38,North,0,0.0,0.0,54,0.00,CLR,,0.00,WeatherDisplay:10.37,2015-03-06 18:25:00,
2015-03-06 13:30:00,25.9,11.5,30.38,North,0,0.0,0.0,54,0.00,CLR,,0.00,WeatherDisplay:10.37,2015-03-06 18:30:00,
2015-03-06 13:35:00,25.5,12.0,30.38,North,0,0.0,0.0,56,0.00,CLR,,0.00,WeatherDisplay:10.37,2015-03-06 18:35:00,
2015-03-06 13:40:00,26.1,12.5,30.38,North,0,0.0,0.0,56,0.00,CLR,,0.00,WeatherDisplay:10.37,2015-03-06 18:40:00,
2015-03-06 13:45:00,26.6,13.0,30.38,North,0,0.0,0.0,56,0.00,CLR,,0.00,WeatherDisplay:10.37,2015-03-06 18:45:00,
2015-03-06 13:50:00,26.1,12.5,30.38,North,0,0.0,0.0,56,0.00,CLR,,0.00,WeatherDisplay:10.37,2015-03-06 18:50:00,
2015-03-06 13:55:00,26.8,13.6,30.37,North,0,0.0,0.0,57,0.00,CLR,,0.00,WeatherDisplay:10.37,2015-03-06 18:55:00,
2015-03-06 14:00:00,27.0,13.3,30.36,North,0,0.0,0.0,56,0.00,CLR,,0.00,WeatherDisplay:10.37,2015-03-06 19:00:00,
2015-03-06 14:05:00,27.3,13.7,30.36,North,0,0.0,0.0,56,0.00,CLR,,0.00,WeatherDisplay:10.37,2015-03-06 19:05:00,
2015-03-06 14:10:00,27.0,12.5,30.36,North,0,0.0,0.0,54,0.00,CLR,,0.00,WeatherDisplay:10.37,2015-03-06 19:10:00,
2015-03-06 14:15:00,26.8,12.3,30.36,North,0,0.0,0.0,54,0.00,CLR,,0.00,WeatherDisplay:10.37,2015-03-06 19:15:00,
2015-03-06 14:20:00,27.0,13.7,30.35,North,0,0.0,0.0,57,0.00,CLR,,0.00,WeatherDisplay:10.37,2015-03-06 19:20:00,
2015-03-06 14:25:00,27.3,13.7,30.34,North,0,0.0,0.0,56,0.00,CLR,,0.00,WeatherDisplay:10.37,2015-03-06 19:25:00,
2015-03-06 14:30:00,27.0,12.5,30.34,North,0,0.0,0.0,54,0.00,CLR,,0.00,WeatherDisplay:10.37,2015-03-06 19:30:00,
2015-03-06 14:35:00,26.8,13.2,30.34,North,0,0.0,0.0,56,0.00,CLR,,0.00,WeatherDisplay:10.37,2015-03-06 19:35:00,
2015-03-06 14:40:00,26.8,12.8,30.34,North,0,0.0,0.0,55,0.00,CLR,,0.00,WeatherDisplay:10.37,2015-03-06 19:40:00,
2015-03-06 14:45:00,26.4,12.0,30.34,North,0,0.0,0.0,54,0.00,CLR,,0.00,WeatherDisplay:10.37,2015-03-06 19:45:00,
2015-03-06 14:50:00,26.6,12.6,30.34,North,0,0.0,0.0,55,0.00,CLR,,0.00,WeatherDisplay:10.37,2015-03-06 19:50:00,
2015-03-06 14:55:00,27.1,12.3,30.34,North,0,0.0,0.0,53,0.00,CLR,,0.00,WeatherDisplay:10.37,2015-03-06 19:55:00,
2015-03-06 15:00:00,26.8,11.9,30.34,North,0,0.0,0.0,53,0.00,CLR,,0.00,WeatherDisplay:10.37,2015-03-06 20:00:00,
2015-03-06 15:05:00,27.0,12.9,30.34,North,0,0.0,0.0,55,0.00,CLR,,0.00,WeatherDisplay:10.37,2015-03-06 20:05:00,
2015-03-06 15:10:00,26.6,11.7,30.34,North,0,0.0,0.0,53,0.00,CLR,,0.00,WeatherDisplay:10.37,2015-03-06 20:10:00,
2015-03-06 15:15:00,27.0,13.3,30.33,North,0,0.0,0.0,56,0.00,CLR,,0.00,WeatherDisplay:10.37,2015-03-06 20:15:00,
2015-03-06 15:20:00,27.0,13.3,30.32,North,0,0.0,0.0,56,0.00,CLR,,0.00,WeatherDisplay:10.37,2015-03-06 20:20:00,
2015-03-06 15:25:00,27.0,13.3,30.32,North,0,0.0,0.0,56,0.00,CLR,,0.00,WeatherDisplay:10.37,2015-03-06 20:25:00,
2015-03-06 15:30:00,27.3,13.7,30.32,North,0,0.0,0.0,56,0.00,CLR,,0.00,WeatherDisplay:10.37,2015-03-06 20:30:00,
2015-03-06 15:35:00,26.8,12.8,30.32,North,0,0.0,0.0,55,0.00,CLR,,0.00,WeatherDisplay:10.37,2015-03-06 20:35:00,
2015-03-06 15:40:00,27.0,12.5,30.32,North,0,0.0,0.0,54,0.00,CLR,,0.00,WeatherDisplay:10.37,2015-03-06 20:40:00,
2015-03-06 15:45:00,27.3,12.8,30.32,North,0,0.0,0.0,54,0.00,CLR,,0.00,WeatherDisplay:10.37,2015-03-06 20:45:00,
2015-03-06 15:50:00,27.7,13.2,30.32,North,0,0.0,0.0,54,0.00,CLR,,0.00,WeatherDisplay:10.37,2015-03-06 20:50:00,
2015-03-06 15:55:00,27.7,13.6,30.32,North,0,0.0,0.0,55,0.00,CLR,,0.00,WeatherDisplay:10.37,2015-03-06 20:55:00,
2015-03-06 16:01:00,27.7,12.8,30.31,North,0,0.0,0.0,53,0.00,CLR,,0.00,WeatherDisplay:10.37,2015-03-06 21:01:00,
2015-03-06 16:06:00,27.0,12.5,30.31,North,0,0.0,0.0,54,0.00,CLR,,0.00,WeatherDisplay:10.37,2015-03-06 21:06:00,
2015-03-06 16:11:00,27.0,12.1,30.31,North,0,0.0,0.0,53,0.00,CLR,,0.00,WeatherDisplay:10.37,2015-03-06 21:11:00,
2015-03-06 16:16:00,27.0,12.5,30.31,North,0,0.0,0.0,54,0.00,CLR,,0.00,WeatherDisplay:10.37,2015-03-06 21:16:00,